Regional Weather Roundup
Issued by NWS

Home | Current Version | Previous Version | Graphics & Text | Print | Product List | Glossary On
Versions: 1 2 3 4 5 6 7 8 9 10 11 12 13 14 15 16 17 18 19 20 21 22 23 24 25 26 27 28 29 30 31 32 33 34 35 36 37 38 39 40 41 42 43 44 45 46 47 48 49 50
000
ASUS43 KDTX 251210
RWRMI
MICHIGAN HOURLY REGIONAL WEATHER ROUNDUP
NATIONAL WEATHER SERVICE DETROIT/PONTIAC MI
700 AM EST THU DEC 25 2014

NOTE: "FAIR" INDICATES FEW OR NO CLOUDS BELOW 12,000 FEET WITH NO
SIGNIFICANT WEATHER AND/OR OBSTRUCTION TO VISIBILITY.

MIZ047>049-052>055-059>063-066>070-074>076-081>083-251300-
SOUTHEAST LOWER MICHIGAN

CITY           SKY/WX    TMP DP  RH WIND       PRES   REMARKS
ADRIAN         CLOUDY    36  33  89 W10G21    29.79R
6HR MIN TEMP:  36; 6HR MAX TEMP:  37; 6HR PCP: TRACE;

ALMA           CLOUDY    35  33  92 W9        29.70R
ANN ARBOR      LGT RAIN  37  34  89 W13       29.75R
BAD AXE        CLOUDY    34  34 100 W16G25    29.63R
6HR MIN TEMP:  33; 6HR MAX TEMP:  34;

DETROIT CITY   LGT RAIN  40  34  79 W16G22    29.73R
6HR MIN TEMP:  39; 6HR MAX TEMP:  41; 6HR PCP: TRACE;

DETROIT        LGT RAIN  38  35  89 SW14      29.75R
6HR MIN TEMP:  38; 6HR MAX TEMP:  38; 6HR PCP: TRACE;

FLINT          CLOUDY    37  33  85 W15G23    29.71R
6HR MIN TEMP:  36; 6HR MAX TEMP:  38; 6HR PCP: TRACE;

GROSSE ILE     CLOUDY    39  36  87 SW10G16   29.75R
HILLSDALE      CLOUDY    36  35  96 W13G18    29.77R
6HR MIN TEMP:  35; 6HR MAX TEMP:  36;

HOWELL         CLOUDY    35  34  96 W10G16    29.72R
6HR MIN TEMP:  33; 6HR MAX TEMP:  35;


CITY           SKY/WX    TMP DP  RH WIND       PRES   REMARKS
JACKSON        CLOUDY    35  32  88 W12       29.75R
6HR MIN TEMP:  35; 6HR MAX TEMP:  36; 6HR PCP:  0.01;

LAMBERTVILLE   LGT RAIN  37  34  87 W9G17     29.80R
LANSING        CLOUDY    36  32  85 W13G21    29.74R
6HR MIN TEMP:  35; 6HR MAX TEMP:  36; 6HR PCP:  0.01;

LAPEER         NOT AVBL
MASON          CLOUDY    35  32  88 W12G21    29.74R
MONROE         DRIZZLE   37  36  93 SW13G21   29.76R
MT. CLEMENS    CLOUDY    39  38  94 W15G22    29.69R
6HR MIN TEMP:  37; 6HR MAX TEMP:  39; 6HR PCP: TRACE;

PONTIAC        LGT RAIN  36  33  89 W15G24    29.70R
6HR MIN TEMP:  34; 6HR MAX TEMP:  36; 6HR PCP: TRACE;

PORT HOPE        N/A     36  31  82 W9G21     29.58R
6HR MIN TEMP:  34; 6HR MAX TEMP:  36; 6HR PCP:  0.03;

PORT HURON     CLOUDY    37  36  93 W7        29.69R
TRI CITIES     CLOUDY    36  32  85 W13       29.68R
6HR MIN TEMP:  35; 6HR MAX TEMP:  37; 6HR PCP: TRACE;

YPSILANTI      LGT RAIN  41  33  73 W18       29.75R
6HR MIN TEMP:  40; 6HR MAX TEMP:  41; 6HR PCP: TRACE;

$$
MIZ043>046-050>051-056>058-064>065-071>073-077>080-251300-
SOUTHWEST LOWER MICHIGAN

CITY           SKY/WX    TMP DP  RH WIND       PRES   REMARKS
BATTLE CREEK   CLOUDY    37  32  82 W13       29.78R
6HR MIN TEMP:  36; 6HR MAX TEMP:  37; 6HR PCP:  0.01;

BENTON HARBOR  CLOUDY    36  30  79 W14G23    29.82R
6HR MIN TEMP:  36; 6HR MAX TEMP:  37;

BIG RAPIDS     CLOUDY    34  32  93 W9        29.68R
6HR MIN TEMP:  34; 6HR MAX TEMP:  34;

COLDWATER      CLOUDY    35  33  92 W12       29.79R
6HR MIN TEMP:  35; 6HR MAX TEMP:  36;

HOLLAND        CLOUDY    39  29  67 W16G25    29.78R
6HR MIN TEMP:  39; 6HR MAX TEMP:  40; 6HR PCP: TRACE;

GRAND RAPIDS   CLOUDY    37  33  85 W13       29.75R
6HR MIN TEMP:  36; 6HR MAX TEMP:  37; 6HR PCP: TRACE;

KALAMAZOO      CLOUDY    37  32  82 W12       29.79R
6HR MIN TEMP:  36; 6HR MAX TEMP:  37; 6HR PCP:  0.02;

MARSHALL       CLOUDY    35  32  90 W13G18    29.76R
MUSKEGON       CLOUDY    38  28  67 W20G26    29.75R
6HR MIN TEMP:  37; 6HR MAX TEMP:  38; 6HR PCP: TRACE;

$$
MIZ016>042-251300-
NORTHERN LOWER MICHIGAN

CITY           SKY/WX    TMP DP  RH WIND       PRES   REMARKS
ALPENA         CLOUDY    34  31  88 W12G20    29.55R
6HR MIN TEMP:  33; 6HR MAX TEMP:  34; 6HR PCP:  0.03;

BEAVER ISLAND  CLOUDY    35  31  86 W14       29.59R
6HR MIN TEMP:  33; 6HR MAX TEMP:  35;

BELLAIRE       CLOUDY    37  31  80 W7        29.62R
6HR MIN TEMP:  35; 6HR MAX TEMP:  37;

CADILLAC       CLOUDY    32  30  91 W10G17    29.63R
CHARLEVOIX     CLOUDY    35  31  85 W21G26    29.63R
6HR MIN TEMP:  34; 6HR MAX TEMP:  35;

FRANKFORT      CLOUDY    36  32  86 W17G25    29.66R
GAYLORD        LGT SNOW  31  29  92 W8        29.56R FOG
6HR MIN TEMP:  31; 6HR MAX TEMP:  32; 6HR PCP:  0.02;

GRAYLING       CLOUDY    33  32  96 W10G16    29.60R
6HR MIN TEMP:  33; 6HR MAX TEMP:  33;

HARBOR SPRINGS CLOUDY    35  28  77 W12G23    29.58R
HOUGHTON LAKE  CLOUDY    33  29  85 W13       29.61R
6HR MIN TEMP:  32; 6HR MAX TEMP:  33; 6HR PCP: TRACE;

MANISTEE       MOCLDY    36  28  75 W18       29.69R
OSCODA         CLOUDY    34  32  93 SW10      29.59R
PELLSTON       CLOUDY    35  29  78 NW16G25   29.56R
6HR MIN TEMP:  34; 6HR MAX TEMP:  35;

TRAVERSE CITY  CLOUDY    36  30  79 W10       29.63R
6HR MIN TEMP:  35; 6HR MAX TEMP:  36;

$$
MIZ007>008-015-251300-
EASTERN UPPER MICHIGAN

CITY           SKY/WX    TMP DP  RH WIND       PRES   REMARKS
KINROSS        CLOUDY    34  34 100 W15G21    29.49R
6HR MIN TEMP:  34; 6HR MAX TEMP:  34;

MACKINAC ISLAN CLOUDY    33  33 100 W23G31    29.53R
6HR MIN TEMP:  33; 6HR MAX TEMP:  34;

NEWBERRY       CLOUDY    32  31  96 W9        29.53R
6HR MIN TEMP:  32; 6HR MAX TEMP:  32;

S. S. MARIE    LGT SNOW  33  31  92 W15G22    29.46R FOG
6HR MIN TEMP:  33; 6HR MAX TEMP:  34; 6HR PCP:  0.01;

$$
MIZ004>006-011>014-085-251300-
CENTRAL UPPER MICHIGAN

CITY           SKY/WX    TMP DP  RH WIND       PRES   REMARKS
MANISTIQUE     CLOUDY    32  31  95 W3        29.58R
6HR MIN TEMP:  32; 6HR MAX TEMP:  33;

ESCANABA       CLOUDY    34  28  80 W12       29.60R
6HR MIN TEMP:  30; 6HR MAX TEMP:  34;

MENOMINEE      CLEAR     34  27  75 W5        29.64R
6HR MIN TEMP:  32; 6HR MAX TEMP:  34;

SAWYER-GWINN   CLOUDY    32  28  86 W9        29.55R
$$
MIZ001>003-009>011-084-251300-
WESTERN UPPER MICHIGAN

CITY           SKY/WX    TMP DP  RH WIND       PRES   REMARKS
IRON MOUNTAIN  CLOUDY    32  27  81 W8        29.58R
6HR MIN TEMP:  32; 6HR MAX TEMP:  33;

HOUGHTON       FLURRIES  32  29  88 W17G26    29.51R
6HR MIN TEMP:  31; 6HR MAX TEMP:  33; 6HR PCP:  0.02;

COPPER HARBOR    N/A     35  31  85 VRB5      29.50R
6HR MIN TEMP:  34; 6HR MAX TEMP:  36;

IRONWOOD       CLOUDY    30  28  93 SW12      29.53R
6HR MIN TEMP:  30; 6HR MAX TEMP:  32;

$$

ABBREVIATIONS USED IN REMARKS
   TC - TEMPERATURE IN CELSIUS
  WCI - WIND CHILL INDEX
   HX - HEAT INDEX
  VSB - VISIBILITY




USA.gov is the U.S. government's official web portal to all federal, state and local government web resources and services.